﻿_id,日時,平均風速(m/s),平均風向,最大瞬間風速(m/s),最大風速時風向,気温(℃),湿度(%),10分間移動積算雨量(mm),1時間移動積算雨量(mm),日雨量(mm),累計雨量(mm),日射(日積算)(MJ/m2),日照(日積算)(min),現地気圧(hPa),海面気圧(hPa)
1,2021-08-23T00:00:00,0.7,南南西,2,南南西,24.6,97.8,0,0,5,5,7.9,68,999.5,1012.9
2,2021-08-23T00:01:00,0.6,南西,1.8,南,24.6,97.8,0,0,0,5,0,0,999.5,1012.9
3,2021-08-23T00:02:00,0.6,南西,1.4,南西,24.6,97.9,0,0,0,5,0,0,999.5,1012.9
4,2021-08-23T00:03:00,0.6,南西,1.6,南西,24.7,97.9,0,0,0,5,0,0,999.6,1013
5,2021-08-23T00:04:00,0.6,南西,1.6,南西,24.6,97.9,0,0,0,5,0,0,999.6,1013
6,2021-08-23T00:05:00,0.6,南西,1.6,南西,24.6,97.9,0,0,0,5,0,0,999.6,1013
7,2021-08-23T00:06:00,0.6,南西,1.6,南西,24.6,97.9,0,0,0,5,0,0,999.6,1013
8,2021-08-23T00:07:00,0.6,南西,1.6,南西,24.5,97.9,0,0,0,5,0,0,999.5,1012.9
9,2021-08-23T00:08:00,0.6,南西,1.6,南西,24.6,97.9,0,0,0,5,0,0,999.6,1013
10,2021-08-23T00:09:00,0.5,南西,1.6,南西,24.7,98,0,0,0,5,0,0,999.6,1013
11,2021-08-23T00:10:00,0.5,南西,1.6,南西,24.7,98,0,0,0,5,0,0,999.5,1012.9
12,2021-08-23T00:11:00,0.4,南西,1.6,南西,24.6,98,0,0,0,5,0,0,999.6,1013
13,2021-08-23T00:12:00,0.4,南西,1.6,南西,24.6,97.9,0,0,0,5,0,0,999.6,1013
14,2021-08-23T00:13:00,0.4,南西,1.6,南西,24.6,98,0,0,0,5,0,0,999.7,1013.1
15,2021-08-23T00:14:00,0.4,南西,1.2,西南西,24.5,98,0,0,0,5,0,0,999.7,1013.1
16,2021-08-23T00:15:00,0.4,西南西,1.3,西,24.5,98,0,0,0,5,0,0,999.7,1013.1
17,2021-08-23T00:16:00,0.5,西南西,1.3,西,24.6,98,0,0,0,5,0,0,999.7,1013.1
18,2021-08-23T00:17:00,0.5,西南西,1.3,西,24.6,98,0,0,0,5,0,0,999.6,1013
19,2021-08-23T00:18:00,0.5,西南西,1.3,西,24.6,98.1,0,0,0,5,0,0,999.6,1013
20,2021-08-23T00:19:00,0.6,西南西,1.3,西,24.6,98.1,0,0,0,5,0,0,999.6,1013
21,2021-08-23T00:20:00,0.7,西,1.3,西,24.5,98,0,0,0,5,0,0,999.6,1013
22,2021-08-23T00:21:00,0.7,西,1.3,西,24.6,98,0,0,0,5,0,0,999.5,1012.9
23,2021-08-23T00:22:00,0.7,西,1.3,西,24.5,98.1,0,0,0,5,0,0,999.5,1012.9
24,2021-08-23T00:23:00,0.6,西,1.3,西,24.5,98.1,0,0,0,5,0,0,999.5,1012.9
25,2021-08-23T00:24:00,0.6,西,1.3,西,24.5,98,0,0,0,5,0,0,999.5,1012.9
26,2021-08-23T00:25:00,0.6,西,1.2,西,24.5,98,0,0,0,5,0,0,999.5,1012.9
27,2021-08-23T00:26:00,0.5,西,1.1,東北東,24.4,98.1,0,0,0,5,0,0,999.5,1012.9
28,2021-08-23T00:27:00,0.4,南,1.1,東北東,24.4,98,0,0,0,5,0,0,999.5,1012.9
29,2021-08-23T00:28:00,0.4,南南東,1.1,東北東,24.4,98.1,0,0,0,5,0,0,999.5,1012.9
30,2021-08-23T00:29:00,0.3,南南東,1.1,東北東,24.4,98.1,0,0,0,5,0,0,999.4,1012.8
31,2021-08-23T00:30:00,0.3,南南東,1.1,東北東,24.5,98.2,0,0,0,5,0,0,999.4,1012.8
32,2021-08-23T00:31:00,0.4,南南東,1.2,南南西,24.5,98.2,0,0,0,5,0,0,999.4,1012.8
33,2021-08-23T00:32:00,0.4,南南東,1.4,南南西,24.5,98.2,0,0,0,5,0,0,999.4,1012.8
34,2021-08-23T00:33:00,0.6,南,2.7,南南西,24.6,98.2,0,0,0,5,0,0,999.4,1012.8
35,2021-08-23T00:34:00,0.8,南,3.1,南南西,24.6,98.2,0,0,0,5,0,0,999.4,1012.8
36,2021-08-23T00:35:00,1,南南西,3.1,南南西,24.6,98.2,0,0,0,5,0,0,999.4,1012.8
37,2021-08-23T00:36:00,1.2,南南西,3.1,南南西,24.6,98.2,0,0,0,5,0,0,999.4,1012.8
38,2021-08-23T00:37:00,1.4,南南西,3.1,南南西,24.6,98.1,0,0,0,5,0,0,999.4,1012.8
39,2021-08-23T00:38:00,1.6,南南西,3.1,南南西,24.6,98.1,0,0,0,5,0,0,999.4,1012.8
40,2021-08-23T00:39:00,1.7,南南西,3.1,南南西,24.6,98.1,0,0,0,5,0,0,999.3,1012.7
41,2021-08-23T00:40:00,1.8,南南西,3.1,南南西,24.5,98.1,0,0,0,5,0,0,999.3,1012.7
42,2021-08-23T00:41:00,1.9,南南西,3.1,南南西,24.5,98.1,0,0,0,5,0,0,999.2,1012.6
43,2021-08-23T00:42:00,2,南南西,3.1,南南西,24.5,98.1,0,0,0,5,0,0,999.2,1012.6
44,2021-08-23T00:43:00,2,南南西,3.1,南南西,24.5,98.1,0,0,0,5,0,0,999.2,1012.6
45,2021-08-23T00:44:00,2,南南西,3.1,南南西,24.5,98.1,0,0,0,5,0,0,999.2,1012.6
46,2021-08-23T00:45:00,1.9,南南西,3.1,南南西,24.5,98.1,0,0,0,5,0,0,999.2,1012.6
47,2021-08-23T00:46:00,2,南南西,3.4,南南西,24.5,98.1,0,0,0,5,0,0,999.3,1012.7
48,2021-08-23T00:47:00,2,南南西,3.4,南南西,24.5,98.1,0,0,0,5,0,0,999.3,1012.7
49,2021-08-23T00:48:00,2,南南西,3.5,南,24.5,98.1,0,0,0,5,0,0,999.3,1012.7
50,2021-08-23T00:49:00,2,南南西,3.5,南,24.5,98.2,0,0,0,5,0,0,999.3,1012.7
51,2021-08-23T00:50:00,2,南南西,3.5,南,24.5,98.2,0,0,0,5,0,0,999.3,1012.7
52,2021-08-23T00:51:00,2,南南西,3.5,南,24.5,98.2,0,0,0,5,0,0,999.4,1012.8
53,2021-08-23T00:52:00,1.9,南西,3.5,南,24.6,98.2,0,0,0,5,0,0,999.4,1012.8
54,2021-08-23T00:53:00,1.8,南西,3.5,南,24.6,98.2,0,0,0,5,0,0,999.4,1012.8
55,2021-08-23T00:54:00,1.6,南西,3.5,南,24.6,98.2,0,0,0,5,0,0,999.5,1012.9
56,2021-08-23T00:55:00,1.5,南西,3.5,南,24.5,98.2,0,0,0,5,0,0,999.5,1012.9
57,2021-08-23T00:56:00,1.4,南西,3.5,南,24.5,98.2,0,0,0,5,0,0,999.5,1012.9
58,2021-08-23T00:57:00,1.2,南西,3.5,南,24.5,98.2,0,0,0,5,0,0,999.5,1012.9
59,2021-08-23T00:58:00,1.1,西南西,2.2,南,24.5,98.2,0,0,0,5,0,0,999.5,1012.9
60,2021-08-23T00:59:00,1,西南西,2.2,南,24.5,98.2,0,0,0,5,0,0,999.6,1013
61,2021-08-23T01:00:00,1,西南西,1.8,西,24.4,98.1,0,0,0,5,0,0,999.6,1013
62,2021-08-23T01:01:00,1,西南西,1.8,西,24.4,98.2,0,0,0,5,0,0,999.5,1012.9
63,2021-08-23T01:02:00,1,西南西,1.8,西,24.4,98.2,0,0,0,5,0,0,999.5,1012.9
64,2021-08-23T01:03:00,1.1,西南西,1.8,西,24.3,98.2,0,0,0,5,0,0,999.5,1012.9
65,2021-08-23T01:04:00,1.2,西南西,1.9,西南西,24.3,98.2,0,0,0,5,0,0,999.5,1012.9
66,2021-08-23T01:05:00,1.2,西,1.9,西南西,24.3,98.2,0,0,0,5,0,0,999.5,1012.9
67,2021-08-23T01:06:00,1.2,西南西,1.9,西南西,24.3,98.2,0,0,0,5,0,0,999.5,1012.9
68,2021-08-23T01:07:00,1.3,西南西,1.9,西南西,24.3,98.3,0,0,0,5,0,0,999.4,1012.8
69,2021-08-23T01:08:00,1.3,西南西,1.9,西南西,24.4,98.3,0,0,0,5,0,0,999.4,1012.8
70,2021-08-23T01:09:00,1.2,南西,1.9,西南西,24.4,98.3,0,0,0,5,0,0,999.4,1012.8
71,2021-08-23T01:10:00,1.2,南西,1.9,西南西,24.5,98.3,0,0,0,5,0,0,999.4,1012.8
72,2021-08-23T01:11:00,1.1,南西,1.9,西南西,24.4,98.3,0,0,0,5,0,0,999.4,1012.8
73,2021-08-23T01:12:00,1,南西,1.9,西南西,24.4,98.3,0,0,0,5,0,0,999.3,1012.7
74,2021-08-23T01:13:00,0.8,南西,1.9,西南西,24.4,98.3,0,0,0,5,0,0,999.4,1012.8
75,2021-08-23T01:14:00,0.7,南南西,1.8,西南西,24.4,98.3,0,0,0,5,0,0,999.4,1012.8
76,2021-08-23T01:15:00,0.6,南南西,1.5,南西,24.4,98.3,0,0,0,5,0,0,999.4,1012.8
77,2021-08-23T01:16:00,0.5,南南西,1.5,南西,24.5,98.3,0,0,0,5,0,0,999.4,1012.8
78,2021-08-23T01:17:00,0.5,南西,1.5,南西,24.5,98.4,0,0,0,5,0,0,999.5,1012.9
79,2021-08-23T01:18:00,0.4,南西,1.5,南西,24.5,98.3,0,0,0,5,0,0,999.5,1012.9
80,2021-08-23T01:19:00,0.4,西南西,1.5,南西,24.4,98.3,0,0,0,5,0,0,999.6,1013
81,2021-08-23T01:20:00,0.5,西南西,1.3,西,24.3,98.2,0,0,0,5,0,0,999.6,1013
82,2021-08-23T01:21:00,0.5,西南西,1.3,西,24.3,98.3,0,0,0,5,0,0,999.6,1013
83,2021-08-23T01:22:00,0.5,西南西,1.3,西,24.3,98.2,0,0,0,5,0,0,999.6,1013
84,2021-08-23T01:23:00,0.6,西南西,1.4,西,24.3,98.3,0,0,0,5,0,0,999.6,1013
85,2021-08-23T01:24:00,0.7,西,1.4,西,24.3,98.3,0,0,0,5,0,0,999.5,1012.9
86,2021-08-23T01:25:00,0.8,西,1.6,西,24.3,98.3,0,0,0,5,0,0,999.5,1012.9
87,2021-08-23T01:26:00,0.8,西,1.6,西,24.3,98.3,0,0,0,5,0,0,999.5,1012.9
88,2021-08-23T01:27:00,0.9,西,1.6,西,24.2,98.2,0,0,0,5,0,0,999.5,1012.9
89,2021-08-23T01:28:00,0.9,西,1.6,西,24.3,98.3,0,0,0,5,0,0,999.5,1012.9
90,2021-08-23T01:29:00,0.8,西南西,1.6,西,24.2,98.3,0,0,0,5,0,0,999.5,1012.9
91,2021-08-23T01:30:00,0.7,西南西,1.6,西,24.3,98.3,0,0,0,5,0,0,999.5,1012.9
92,2021-08-23T01:31:00,0.7,西,1.6,西,24.4,98.3,0,0,0,5,0,0,999.4,1012.8
93,2021-08-23T01:32:00,0.7,西,1.6,西,24.5,98.4,0,0,0,5,0,0,999.5,1012.9
94,2021-08-23T01:33:00,0.6,西南西,1.6,西,24.3,98.3,0,0,0,5,0,0,999.5,1012.9
95,2021-08-23T01:34:00,0.5,西南西,1.6,西,24.3,98.3,0,0,0,5,0,0,999.5,1012.9
96,2021-08-23T01:35:00,0.4,西南西,1.4,西南西,24.3,98.3,0,0,0,5,0,0,999.5,1012.9
97,2021-08-23T01:36:00,0.4,南西,1.2,南南西,24.4,98.3,0,0,0,5,0,0,999.5,1012.9
98,2021-08-23T01:37:00,0.3,南西,1.2,南南西,24.3,98.3,0,0,0,5,0,0,999.5,1012.9
99,2021-08-23T01:38:00,0.3,南西,1.2,南南西,24.3,98.3,0,0,0,5,0,0,999.5,1012.9
100,2021-08-23T01:39:00,0.3,南西,1.2,南南西,24.3,98.3,0,0,0,5,0,0,999.5,1012.9
101,2021-08-23T01:40:00,0.4,西南西,1.2,南南西,24.3,98.3,0,0,0,5,0,0,999.5,1012.9
102,2021-08-23T01:41:00,0.4,西南西,1.2,南南西,24.3,98.3,0,0,0,5,0,0,999.5,1012.9
103,2021-08-23T01:42:00,0.4,西南西,1.2,南南西,24.3,98.3,0,0,0,5,0,0,999.5,1012.9
104,2021-08-23T01:43:00,0.3,西,1.2,西,24.3,98.3,0,0,0,5,0,0,999.5,1012.9
105,2021-08-23T01:44:00,0.3,西,1.2,西,24.3,98.3,0,0,0,5,0,0,999.5,1012.9
106,2021-08-23T01:45:00,0.3,西南西,1.2,西,24.3,98.3,0,0,0,5,0,0,999.5,1012.9
107,2021-08-23T01:46:00,0.3,西南西,1.2,西,24.3,98.4,0,0,0,5,0,0,999.5,1012.9
108,2021-08-23T01:47:00,0.3,西南西,1.2,西,24.3,98.3,0,0,0,5,0,0,999.4,1012.8
109,2021-08-23T01:48:00,0.3,南西,1.2,西,24.3,98.3,0,0,0,5,0,0,999.5,1012.9
110,2021-08-23T01:49:00,0.3,南西,1.2,西,24.4,98.4,0,0,0,5,0,0,999.5,1012.9
111,2021-08-23T01:50:00,0.2,静穏,0.8,南,24.2,98.3,0,0,0,5,0,0,999.5,1012.9
112,2021-08-23T01:51:00,0.2,静穏,0.9,西南西,24.2,98.3,0,0,0,5,0,0,999.5,1012.9
113,2021-08-23T01:52:00,0.3,南南西,0.9,西南西,24.2,98.3,0,0,0,5,0,0,999.5,1012.9
114,2021-08-23T01:53:00,0.3,南南西,0.9,西南西,24.2,98.3,0,0,0,5,0,0,999.5,1012.9
115,2021-08-23T01:54:00,0.4,南南西,1,南南西,24.3,98.4,0,0,0,5,0,0,999.5,1012.9
116,2021-08-23T01:55:00,0.4,南南西,1.3,南,24.3,98.4,0,0,0,5,0,0,999.5,1012.9
117,2021-08-23T01:56:00,0.5,南南西,1.3,南,24.3,98.4,0,0,0,5,0,0,999.5,1012.9
118,2021-08-23T01:57:00,0.5,南南西,1.4,南南西,24.4,98.4,0,0,0,5,0,0,999.5,1012.9
119,2021-08-23T01:58:00,0.7,南南西,1.6,南南西,24.4,98.4,0,0,0,5,0,0,999.5,1012.9
120,2021-08-23T01:59:00,0.8,南南西,1.8,南,24.5,98.4,0,0,0,5,0,0,999.5,1012.9
121,2021-08-23T02:00:00,0.9,南南西,1.8,南,24.5,98.4,0,0,0,5,0,0,999.5,1012.9
122,2021-08-23T02:01:00,1,南南西,1.8,南,24.5,98.4,0,0,0,5,0,0,999.4,1012.8
123,2021-08-23T02:02:00,1,南,1.8,南,24.5,98.4,0,0,0,5,0,0,999.4,1012.8
124,2021-08-23T02:03:00,1.1,南,1.8,南,24.5,98.4,0,0,0,5,0,0,999.3,1012.7
125,2021-08-23T02:04:00,1,南,1.8,南,24.5,98.4,0,0,0,5,0,0,999.3,1012.7
126,2021-08-23T02:05:00,0.9,南,1.8,南,24.5,98.4,0,0,0,5,0,0,999.3,1012.7
127,2021-08-23T02:06:00,1,南,1.8,南,24.5,98.4,0,0,0,5,0,0,999.3,1012.7
128,2021-08-23T02:07:00,1,南,1.8,南,24.5,98.4,0,0,0,5,0,0,999.3,1012.7
129,2021-08-23T02:08:00,0.8,南,1.8,南,24.6,98.4,0,0,0,5,0,0,999.3,1012.7
130,2021-08-23T02:09:00,0.7,南,1.8,南,24.5,98.3,0,0,0,5,0,0,999.3,1012.7
131,2021-08-23T02:10:00,0.6,南南西,1.6,南南西,24.3,98.2,0,0,0,5,0,0,999.3,1012.7
132,2021-08-23T02:11:00,0.6,南南西,1.7,西北西,24.3,98.2,0,0,0,5,0,0,999.4,1012.8
133,2021-08-23T02:12:00,0.7,南西,2.1,西,24.2,98.2,0,0,0,5,0,0,999.4,1012.8
134,2021-08-23T02:13:00,0.8,西南西,2.1,西,24.2,98.2,0,0,0,5,0,0,999.5,1012.9
135,2021-08-23T02:14:00,0.9,西南西,2.1,西,24.3,98.3,0,0,0,5,0,0,999.5,1012.9
136,2021-08-23T02:15:00,1,西,2.1,西,24.2,98.3,0,0,0,5,0,0,999.5,1012.9
137,2021-08-23T02:16:00,0.9,西,2.1,西,24.2,98.2,0,0,0,5,0,0,999.5,1012.9
138,2021-08-23T02:17:00,0.8,西,2.1,西,24.2,98.3,0,0,0,5,0,0,999.4,1012.8
139,2021-08-23T02:18:00,0.8,西,2.1,西,24.2,98.3,0,0,0,5,0,0,999.4,1012.8
140,2021-08-23T02:19:00,0.8,西南西,2.1,西,24.2,98.3,0,0,0,5,0,0,999.3,1012.7
141,2021-08-23T02:20:00,0.9,西南西,2.1,西,24.3,98.4,0,0,0,5,0,0,999.3,1012.7
142,2021-08-23T02:21:00,0.9,南西,2.1,西,24.3,98.3,0,0,0,5,0,0,999.3,1012.7
143,2021-08-23T02:22:00,0.8,南南西,2.1,南,24.3,98.3,0,0,0,5,0,0,999.3,1012.7
144,2021-08-23T02:23:00,0.7,南南西,2.1,南,24.3,98.3,0,0,0,5,0,0,999.3,1012.7
145,2021-08-23T02:24:00,0.7,南,2.1,南,24.3,98.3,0,0,0,5,0,0,999.3,1012.7
146,2021-08-23T02:25:00,0.7,南,2.1,南,24.3,98.4,0,0,0,5,0,0,999.3,1012.7
147,2021-08-23T02:26:00,0.8,南,2.1,南,24.4,98.4,0,0,0,5,0,0,999.3,1012.7
148,2021-08-23T02:27:00,0.9,南,2.1,南,24.4,98.4,0,0,0,5,0,0,999.4,1012.8
149,2021-08-23T02:28:00,1,南,2.1,南,24.4,98.4,0,0,0,5,0,0,999.4,1012.8
150,2021-08-23T02:29:00,1,南,2.1,南,24.5,98.4,0,0,0,5,0,0,999.4,1012.8
151,2021-08-23T02:30:00,1,南,2.1,南,24.5,98.4,0,0,0,5,0,0,999.3,1012.7
152,2021-08-23T02:31:00,1,南,2.1,南,24.5,98.4,0,0,0,5,0,0,999.3,1012.7
153,2021-08-23T02:32:00,1,南南西,1.9,南南西,24.5,98.4,0,0,0,5,0,0,999.3,1012.7
154,2021-08-23T02:33:00,1,南南西,1.9,南南西,24.5,98.4,0,0,0,5,0,0,999.3,1012.7
155,2021-08-23T02:34:00,1.1,南南西,1.9,南南西,24.5,98.4,0,0,0,5,0,0,999.3,1012.7
156,2021-08-23T02:35:00,1.1,南南西,1.9,南南西,24.5,98.4,0,0,0,5,0,0,999.3,1012.7
157,2021-08-23T02:36:00,1.2,南南西,2.2,南南西,24.5,98.4,0,0,0,5,0,0,999.3,1012.7
158,2021-08-23T02:37:00,1.3,南南西,2.5,南南西,24.6,98.4,0,0,0,5,0,0,999.3,1012.7
159,2021-08-23T02:38:00,1.4,南南西,2.8,南南西,24.5,98.4,0,0,0,5,0,0,999.3,1012.7
160,2021-08-23T02:39:00,1.5,南南西,2.8,南南西,24.5,98.4,0,0,0,5,0,0,999.3,1012.7
161,2021-08-23T02:40:00,1.6,南南西,2.8,南南西,24.5,98.3,0,0,0,5,0,0,999.3,1012.7
162,2021-08-23T02:41:00,1.8,南南西,2.8,南南西,24.5,98.3,0,0,0,5,0,0,999.3,1012.7
163,2021-08-23T02:42:00,1.9,南南西,2.9,南南西,24.5,98.3,0,0,0,5,0,0,999.3,1012.7
164,2021-08-23T02:43:00,2,南南西,2.9,南南西,24.5,98.3,0,0,0,5,0,0,999.3,1012.7
165,2021-08-23T02:44:00,2,南南西,2.9,南南西,24.5,98.3,0,0,0,5,0,0,999.3,1012.7
166,2021-08-23T02:45:00,2,南南西,2.9,南南西,24.5,98.3,0,0,0,5,0,0,999.3,1012.7
167,2021-08-23T02:46:00,2,南南西,2.9,南南西,24.5,98.3,0,0,0,5,0,0,999.3,1012.7
168,2021-08-23T02:47:00,2,南南西,2.9,南南西,24.5,98.3,0,0,0,5,0,0,999.3,1012.7
169,2021-08-23T02:48:00,1.9,南南西,2.9,南南西,24.5,98.3,0,0,0,5,0,0,999.2,1012.6
170,2021-08-23T02:49:00,1.8,南南西,2.9,南南西,24.5,98.3,0,0,0,5,0,0,999.3,1012.7
171,2021-08-23T02:50:00,1.8,南南西,2.9,南南西,24.5,98.3,0,0,0,5,0,0,999.3,1012.7
172,2021-08-23T02:51:00,1.8,南南西,2.9,南南西,24.5,98.3,0,0,0,5,0,0,999.3,1012.7
173,2021-08-23T02:52:00,1.8,南南西,2.5,南南西,24.5,98.3,0,0,0,5,0,0,999.3,1012.7
174,2021-08-23T02:53:00,1.7,南南西,2.5,南南西,24.5,98.3,0,0,0,5,0,0,999.2,1012.6
175,2021-08-23T02:54:00,1.7,南,2.5,南南西,24.5,98.3,0,0,0,5,0,0,999.2,1012.6
176,2021-08-23T02:55:00,1.7,南,2.7,南,24.5,98.3,0,0,0,5,0,0,999.2,1012.6
177,2021-08-23T02:56:00,1.6,南,2.7,南,24.5,98.3,0,0,0,5,0,0,999.2,1012.6
178,2021-08-23T02:57:00,1.6,南,2.7,南,24.5,98.3,0,0,0,5,0,0,999.2,1012.6
179,2021-08-23T02:58:00,1.6,南,2.7,南,24.5,98.3,0,0,0,5,0,0,999.3,1012.7
180,2021-08-23T02:59:00,1.5,南,2.7,南,24.5,98.3,0,0,0,5,0,0,999.3,1012.7
181,2021-08-23T03:00:00,1.4,南,2.7,南,24.5,98.3,0,0,0,5,0,0,999.3,1012.7
182,2021-08-23T03:01:00,1.4,南,2.7,南,24.5,98.3,0,0,0,5,0,0,999.3,1012.7
183,2021-08-23T03:02:00,1.3,南,2.7,南,24.5,98.3,0,0,0,5,0,0,999.3,1012.7
184,2021-08-23T03:03:00,1.2,南,2.7,南,24.5,98.3,0,0,0,5,0,0,999.3,1012.7
185,2021-08-23T03:04:00,1.1,南,2.7,南,24.5,98.3,0,0,0,5,0,0,999.3,1012.7
186,2021-08-23T03:05:00,1,南,2.3,南南東,24.5,98.3,0,0,0,5,0,0,999.3,1012.7
187,2021-08-23T03:06:00,0.9,南,2.3,南南東,24.5,98.3,0,0,0,5,0,0,999.3,1012.7
188,2021-08-23T03:07:00,0.8,南南西,2.2,南,24.5,98.3,0,0,0,5,0,0,999.3,1012.7
189,2021-08-23T03:08:00,0.7,南南西,2,南,24.5,98.3,0,0,0,5,0,0,999.3,1012.7
190,2021-08-23T03:09:00,0.7,南南西,1.9,南,24.5,98.2,0,0,0,5,0,0,999.3,1012.7
191,2021-08-23T03:10:00,0.7,南南西,1.9,南,24.5,98.2,0,0,0,5,0,0,999.3,1012.7
192,2021-08-23T03:11:00,0.6,南南西,1.7,南,24.5,98.2,0,0,0,5,0,0,999.3,1012.7
193,2021-08-23T03:12:00,0.6,南南西,1.6,南南西,24.5,98.2,0,0,0,5,0,0,999.3,1012.7
194,2021-08-23T03:13:00,0.7,南南西,1.8,南南西,24.5,98.2,0,0,0,5,0,0,999.3,1012.7
195,2021-08-23T03:14:00,0.8,南南西,1.8,南南西,24.4,98.2,0,0,0,5,0,0,999.3,1012.7
196,2021-08-23T03:15:00,0.8,南南西,1.8,南南西,24.4,98.3,0,0,0,5,0,0,999.2,1012.6
197,2021-08-23T03:16:00,0.8,南南西,1.9,西北西,24.3,98.2,0,0,0,5,0,0,999.2,1012.6
198,2021-08-23T03:17:00,0.9,南西,1.9,西北西,24.3,98.2,0,0,0,5,0,0,999.2,1012.6
199,2021-08-23T03:18:00,1,南西,1.9,西北西,24.2,98.1,0,0,0,5,0,0,999.2,1012.6
200,2021-08-23T03:19:00,1.1,南西,1.9,西北西,24.2,98.2,0,0,0,5,0,0,999.2,1012.6
201,2021-08-23T03:20:00,1.1,西南西,2.1,西,24.2,98.2,0,0,0,5,0,0,999.2,1012.6
202,2021-08-23T03:21:00,1.2,西南西,2.1,西,24.2,98.3,0,0,0,5,0,0,999.2,1012.6
203,2021-08-23T03:22:00,1.2,西南西,2.1,西,24.2,98.3,0,0,0,5,0,0,999.2,1012.6
204,2021-08-23T03:23:00,1.2,西,2.1,西,24.3,98.3,0,0,0,5,0,0,999.2,1012.6
205,2021-08-23T03:24:00,1.2,西,2.1,西,24.1,98.3,0,0,0,5,0,0,999.2,1012.6
206,2021-08-23T03:25:00,1.2,西,2.1,西,24.2,98.2,0,0,0,5,0,0,999.2,1012.6
207,2021-08-23T03:26:00,1.2,西,2.1,西,24.2,98.3,0,0,0,5,0,0,999.2,1012.6
208,2021-08-23T03:27:00,1.1,西南西,2.1,西,24.2,98.4,0,0,0,5,0,0,999.2,1012.6
209,2021-08-23T03:28:00,1.1,西南西,2.1,西,24.2,98.3,0,0,0,5,0,0,999.2,1012.6
210,2021-08-23T03:29:00,1.1,西南西,2.1,西,24.2,98.4,0,0,0,5,0,0,999.2,1012.6
211,2021-08-23T03:30:00,1,西南西,1.9,南南西,24.3,98.4,0,0,0,5,0,0,999.2,1012.6
212,2021-08-23T03:31:00,1,西南西,1.9,南南西,24.3,98.4,0,0,0,5,0,0,999.1,1012.5
213,2021-08-23T03:32:00,0.9,南西,1.9,南南西,24.3,98.4,0,0,0,5,0,0,999.2,1012.6
214,2021-08-23T03:33:00,0.8,南西,1.9,南南西,24.2,98.4,0,0,0,5,0,0,999.2,1012.6
215,2021-08-23T03:34:00,0.8,南西,1.9,南南西,24.2,98.3,0,0,0,5,0,0,999.2,1012.6
216,2021-08-23T03:35:00,0.9,南西,2,西,24.1,98.3,0,0,0,5,0,0,999.2,1012.6
217,2021-08-23T03:36:00,0.9,南西,2,西,24.1,98.3,0,0,0,5,0,0,999.2,1012.6
218,2021-08-23T03:37:00,1,南西,2,西,24.1,98.3,0,0,0,5,0,0,999.2,1012.6
219,2021-08-23T03:38:00,1,西南西,2,西,24.1,98.3,0,0,0,5,0,0,999.2,1012.6
220,2021-08-23T03:39:00,1,西南西,2,西,24,98.3,0,0,0,5,0,0,999.2,1012.6
221,2021-08-23T03:40:00,1,西南西,2,西,24.1,98.3,0,0,0,5,0,0,999.2,1012.6
222,2021-08-23T03:41:00,1,西南西,2,西,24,98.3,0,0,0,5,0,0,999.2,1012.6
223,2021-08-23T03:42:00,1,西南西,2,西,24.1,98.3,0,0,0,5,0,0,999.2,1012.6
224,2021-08-23T03:43:00,1,西南西,2,西,24.1,98.4,0,0,0,5,0,0,999.2,1012.6
225,2021-08-23T03:44:00,1,西南西,2,西,24.2,98.4,0,0,0,5,0,0,999.2,1012.6
226,2021-08-23T03:45:00,1,西南西,1.9,南,24,98.4,0,0,0,5,0,0,999.2,1012.6
227,2021-08-23T03:46:00,0.9,西南西,1.9,南,24.1,98.3,0,0,0,5,0,0,999.2,1012.6
228,2021-08-23T03:47:00,0.8,西南西,1.9,南,24.1,98.4,0,0,0,5,0,0,999.2,1012.6
229,2021-08-23T03:48:00,0.8,西南西,2.2,南西,24.2,98.4,0,0,0,5,0,0,999.2,1012.6
230,2021-08-23T03:49:00,0.8,南西,2.2,南西,24.3,98.5,0,0,0,5,0,0,999.2,1012.6
231,2021-08-23T03:50:00,0.9,南西,2.2,南西,24.2,98.5,0,0,0,5,0,0,999.2,1012.6
232,2021-08-23T03:51:00,1,南西,2.4,南南西,24.3,98.5,0,0,0,5,0,0,999.2,1012.6
233,2021-08-23T03:52:00,1,南西,2.6,南西,24.3,98.5,0,0,0,5,0,0,999.2,1012.6
234,2021-08-23T03:53:00,1.1,南西,2.6,南西,24.2,98.4,0,0,0,5,0,0,999.3,1012.7
235,2021-08-23T03:54:00,1,南西,2.6,南西,24.2,98.3,0,0,0,5,0,0,999.3,1012.7
236,2021-08-23T03:55:00,1.1,南西,2.6,南西,24.2,98.3,0,0,0,5,0,0,999.3,1012.7
237,2021-08-23T03:56:00,1.1,西南西,2.6,南西,24.2,98.4,0,0,0,5,0,0,999.3,1012.7
238,2021-08-23T03:57:00,1.2,西南西,2.6,南西,24.1,98.3,0,0,0,5,0,0,999.3,1012.7
239,2021-08-23T03:58:00,1.1,西南西,2.6,南西,24.1,98.3,0,0,0,5,0,0,999.3,1012.7
240,2021-08-23T03:59:00,1.1,南西,2.6,南西,24.1,98.4,0,0,0,5,0,0,999.3,1012.7
241,2021-08-23T04:00:00,1,西南西,2.6,南西,24.1,98.3,0,0,0,5,0,0,999.3,1012.7
242,2021-08-23T04:01:00,0.9,南西,2.6,南西,24.1,98.4,0,0,0,5,0,0,999.3,1012.7
243,2021-08-23T04:02:00,0.8,西南西,1.7,南南西,24.2,98.4,0,0,0,5,0,0,999.3,1012.7
244,2021-08-23T04:03:00,0.8,南西,1.7,南南西,24.3,98.5,0,0,0,5,0,0,999.3,1012.7
245,2021-08-23T04:04:00,0.8,南西,1.7,南南西,24.3,98.5,0,0,0,5,0,0,999.3,1012.7
246,2021-08-23T04:05:00,0.8,南西,2.2,南南東,24.3,98.5,0,0,0,5,0,0,999.3,1012.7
247,2021-08-23T04:06:00,0.9,南西,2.5,南,24.4,98.5,0,0,0,5,0,0,999.3,1012.7
248,2021-08-23T04:07:00,1,南南西,2.5,南,24.4,98.5,0,0,0,5,0,0,999.3,1012.7
249,2021-08-23T04:08:00,1.1,南南西,2.5,南,24.4,98.5,0,0,0,5,0,0,999.3,1012.7
250,2021-08-23T04:09:00,1.2,南南西,2.5,南,24.3,98.5,0,0,0,5,0,0,999.3,1012.7
251,2021-08-23T04:10:00,1.2,南南西,2.5,南,24.2,98.4,0,0,0,5,0,0,999.3,1012.7
252,2021-08-23T04:11:00,1.3,南西,2.5,南,24.2,98.3,0,0,0,5,0,0,999.3,1012.7
253,2021-08-23T04:12:00,1.4,南西,2.5,南,24.1,98.3,0,0,0,5,0,0,999.3,1012.7
254,2021-08-23T04:13:00,1.4,南西,2.5,南,24.3,98.4,0,0,0,5,0,0,999.3,1012.7
255,2021-08-23T04:14:00,1.4,南西,2.5,南,24.1,98.4,0,0,0,5,0,0,999.3,1012.7
256,2021-08-23T04:15:00,1.4,南西,2.5,南,24.2,98.4,0,0,0,5,0,0,999.3,1012.7
257,2021-08-23T04:16:00,1.3,南西,2.5,西南西,24.3,98.5,0,0,0,5,0,0,999.3,1012.7
258,2021-08-23T04:17:00,1.3,南西,2.5,西南西,24.3,98.4,0,0,0,5,0,0,999.3,1012.7
259,2021-08-23T04:18:00,1.3,南西,2.7,南南西,24.3,98.5,0,0,0,5,0,0,999.3,1012.7
260,2021-08-23T04:19:00,1.3,南西,2.7,南南西,24.1,98.4,0,0,0,5,0,0,999.4,1012.8
261,2021-08-23T04:20:00,1.3,南西,2.7,南南西,24.1,98.3,0,0,0,5,0,0,999.4,1012.8
262,2021-08-23T04:21:00,1.3,南西,2.7,南南西,24,98.3,0,0,0,5,0,0,999.4,1012.8
263,2021-08-23T04:22:00,1.2,南西,2.7,南南西,24.1,98.4,0,0,0,5,0,0,999.3,1012.7
264,2021-08-23T04:23:00,1.1,南西,2.7,南南西,24.1,98.4,0,0,0,5,0,0,999.3,1012.7
265,2021-08-23T04:24:00,1.1,南西,2.7,南南西,24,98.4,0,0,0,5,0,0,999.3,1012.7
266,2021-08-23T04:25:00,1,西南西,2.7,南南西,24,98.3,0,0,0,5,0,0,999.4,1012.8
267,2021-08-23T04:26:00,1,西南西,2.7,南南西,23.9,98.3,0,0,0,5,0,0,999.4,1012.8
268,2021-08-23T04:27:00,1,西南西,2.7,南南西,23.9,98.3,0,0,0,5,0,0,999.4,1012.8
269,2021-08-23T04:28:00,1,西南西,2.1,西,23.9,98.4,0,0,0,5,0,0,999.4,1012.8
270,2021-08-23T04:29:00,1,西南西,2.1,西,23.9,98.4,0,0,0,5,0,0,999.4,1012.8
271,2021-08-23T04:30:00,1.1,西,2.1,西,23.9,98.4,0,0,0,5,0,0,999.4,1012.8
272,2021-08-23T04:31:00,1.2,西,2.1,西,24,98.4,0,0,0,5,0,0,999.4,1012.8
273,2021-08-23T04:32:00,1.3,西,2.3,西,24,98.5,0,0,0,5,0,0,999.5,1012.9
274,2021-08-23T04:33:00,1.4,西,2.3,西,24,98.5,0,0,0,5,0,0,999.5,1012.9
275,2021-08-23T04:34:00,1.4,西,2.3,西,24,98.4,0,0,0,5,0,0,999.5,1012.9
276,2021-08-23T04:35:00,1.5,西,2.3,西,24,98.4,0,0,0,5,0,0,999.5,1012.9
277,2021-08-23T04:36:00,1.5,西,2.3,西,24,98.4,0,0,0,5,0,0,999.5,1012.9
278,2021-08-23T04:37:00,1.5,西,2.3,西,24.1,98.5,0,0,0,5,0,0,999.5,1012.9
279,2021-08-23T04:38:00,1.5,西,2.3,西,24.1,98.5,0,0,0,5,0,0,999.5,1012.9
280,2021-08-23T04:39:00,1.5,西,2.3,西,24.1,98.5,0,0,0,5,0,0,999.5,1012.9
281,2021-08-23T04:40:00,1.5,西南西,2.3,西,24,98.5,0,0,0,5,0,0,999.5,1012.9
282,2021-08-23T04:41:00,1.4,西南西,2.3,西,24,98.5,0,0,0,5,0,0,999.5,1012.9
283,2021-08-23T04:42:00,1.3,西南西,2.3,西南西,24.1,98.5,0,0,0,5,0,0,999.5,1012.9
284,2021-08-23T04:43:00,1.2,西南西,2.3,西南西,24,98.5,0,0,0,5,0,0,999.5,1012.9
285,2021-08-23T04:44:00,1.2,西南西,2.3,西南西,24.1,98.5,0,0,0,5,0,0,999.4,1012.8
286,2021-08-23T04:45:00,1.3,西南西,2.3,西南西,24.1,98.5,0,0,0,5,0,0,999.4,1012.8
287,2021-08-23T04:46:00,1.3,西南西,2.3,西南西,24.2,98.5,0,0,0,5,0,0,999.4,1012.8
288,2021-08-23T04:47:00,1.2,西南西,2.3,西南西,24.2,98.5,0,0,0,5,0,0,999.4,1012.8
289,2021-08-23T04:48:00,1.2,西南西,2.8,西,24.1,98.5,0,0,0,5,0,0,999.4,1012.8
290,2021-08-23T04:49:00,1.2,西南西,2.8,西,24.1,98.4,0,0,0,5,0,0,999.4,1012.8
291,2021-08-23T04:50:00,1.2,西南西,2.8,西,24,98.4,0,0,0,5,0,0,999.4,1012.8
292,2021-08-23T04:51:00,1.2,西南西,2.8,西,24,98.4,0,0,0,5,0,0,999.4,1012.8
293,2021-08-23T04:52:00,1.3,西,2.8,西,24,98.4,0,0,0,5,0,0,999.4,1012.8
294,2021-08-23T04:53:00,1.3,西,2.8,西,24,98.4,0,0,0,5,0,0,999.4,1012.8
295,2021-08-23T04:54:00,1.4,西,2.8,西,24,98.4,0,0,0,5,0,0,999.4,1012.8
296,2021-08-23T04:55:00,1.3,西,2.8,西,24,98.5,0,0,0,5,0,0,999.4,1012.8
297,2021-08-23T04:56:00,1.3,西,2.8,西,24.1,98.5,0,0,0,5,0,0,999.3,1012.7
298,2021-08-23T04:57:00,1.3,西,2.8,西,24.1,98.5,0,0,0,5,0,0,999.3,1012.7
299,2021-08-23T04:58:00,1.2,西,1.9,西,24.1,98.5,0,0,0,5,0,0,999.3,1012.7
300,2021-08-23T04:59:00,1.2,西,1.9,西,24.2,98.5,0,0,0,5,0,0,999.4,1012.8
301,2021-08-23T05:00:00,1.2,西,1.9,西,24.2,98.5,0,0,0,5,0,0,999.4,1012.8
302,2021-08-23T05:01:00,1.2,西,1.9,西,24.1,98.4,0,0,0,5,0,0,999.4,1012.8
303,2021-08-23T05:02:00,1.2,西,1.9,西,24.1,98.4,0,0,0,5,0,0,999.4,1012.8
304,2021-08-23T05:03:00,1.1,西,1.9,西,24,98.4,0,0,0,5,0,0,999.5,1012.9
305,2021-08-23T05:04:00,1.2,西,1.9,西,24.1,98.4,0,0,0,5,0,0,999.5,1012.9
306,2021-08-23T05:05:00,1.2,西,1.8,西,24,98.4,0,0,0,5,0,0,999.5,1012.9
307,2021-08-23T05:06:00,1.2,西,1.8,西,24,98.4,0,0,0,5,0,0,999.5,1012.9
308,2021-08-23T05:07:00,1.2,西,1.8,西,24,98.4,0,0,0,5,0,0,999.6,1013
309,2021-08-23T05:08:00,1.3,西,1.8,西,24,98.4,0,0,0,5,0,0,999.6,1013
310,2021-08-23T05:09:00,1.3,西,1.8,西,24.1,98.4,0,0,0,5,0,0,999.6,1013
311,2021-08-23T05:10:00,1.4,西,2.1,西,24.1,98.4,0,0,0,5,0,0,999.6,1013
312,2021-08-23T05:11:00,1.4,西,2.1,西,24,98.4,0,0,0,5,0,0,999.6,1013
313,2021-08-23T05:12:00,1.4,西,2.1,西,24,98.4,0,0,0,5,0,0,999.7,1013.1
314,2021-08-23T05:13:00,1.4,西,2.1,西,24,98.4,0,0,0,5,0,0,999.7,1013.1
315,2021-08-23T05:14:00,1.3,西,2.1,西,24,98.4,0,0,0,5,0,0,999.7,1013.1
316,2021-08-23T05:15:00,1.4,西,2.2,西,24,98.4,0,0,0,5,0,0,999.7,1013.1
317,2021-08-23T05:16:00,1.4,西,2.2,西,24,98.4,0,0,0,5,0,0,999.7,1013.1
318,2021-08-23T05:17:00,1.4,西,2.2,西,23.9,98.4,0,0,0,5,0,0,999.7,1013.1
319,2021-08-23T05:18:00,1.3,西,2.2,西,24,98.4,0,0,0,5,0,0,999.7,1013.1
320,2021-08-23T05:19:00,1.2,西,2.2,西,24,98.4,0,0,0,5,0,0,999.7,1013.1
321,2021-08-23T05:20:00,1.1,西南西,2.2,西,24,98.4,0,0,0,5,0,0,999.7,1013.1
322,2021-08-23T05:21:00,0.9,西南西,2.2,西,24,98.5,0,0,0,5,0,0,999.7,1013.1
323,2021-08-23T05:22:00,0.8,西南西,2.2,西,24,98.5,0,0,0,5,0,0,999.7,1013.1
324,2021-08-23T05:23:00,0.8,西南西,2.2,西,24.1,98.5,0,0,0,5,0,0,999.7,1013.1
325,2021-08-23T05:24:00,0.7,西南西,2.2,西,24.1,98.5,0,0,0,5,0,0,999.7,1013.1
326,2021-08-23T05:25:00,0.6,西南西,2,西,24,98.4,0,0,0,5,0,0,999.7,1013.1
327,2021-08-23T05:26:00,0.7,西南西,1.6,西,24,98.4,0,0,0,5,0,0,999.6,1013
328,2021-08-23T05:27:00,0.7,西南西,1.6,西,24,98.4,0,0,0,5,0,0,999.6,1013
329,2021-08-23T05:28:00,0.6,西南西,1.6,西,24,98.4,0,0,0,5,0,0,999.6,1013
330,2021-08-23T05:29:00,0.6,西南西,1.6,西,24.1,98.4,0,0,0,5,0,0,999.6,1013
331,2021-08-23T05:30:00,0.7,西,1.6,西,24,98.4,0,0,0,5,0,0,999.7,1013.1
332,2021-08-23T05:31:00,0.7,西,1.6,西,24,98.4,0,0,0,5,0,0,999.7,1013.1